Location: Brahman Valley
(40.6513°N, 111.8855°W)
Time: 09:46:48
(UTC+00:00)

Tiros 1 despin weight - Pass Details

Date: 12 May 2021
Orbit: 594 x 641 km, 48.2° (Epoch: 22 June)

Event Time Altitude Azimuth Distance (km) Brightness Sun altitude
Rises 11:03:06 0° 290° (WNW) 2,934 ? -12.2°
Reaches altitude 10° 11:05:52 10° 275° (W) 2,017 ? -11.8°
Maximum altitude 11:09:24 22° 225° (SW) 1,386 ? -11.2°
Drops below altitude 10° 11:12:54 10° 175° (S) 1,988 ? -10.7°
Sets 11:15:37 0° 160° (SSE) 2,881 ? -10.3°
